timestamp,surface_pressure_avg,surface_temp_avg,battery_voltage,lat,long
2022-05-20 00:09:00+00:00,307.3047,7.35,12.01,47.84626,-54.09684
2022-05-20 00:19:00+00:00,315.9664,7.4,12.01,47.84626,-54.09684
2022-05-20 00:29:00+00:00,324.013,7.39,12.01,47.84626,-54.09684
2022-05-20 00:39:00+00:00,335.5847,7.3,12.01,47.84626,-54.09684
2022-05-20 00:49:00+00:00,346.6529,7.3,12.01,47.84626,-54.09684
2022-05-20 00:59:00+00:00,354.2496,7.3,12.01,47.84626,-54.09684
2022-05-20 01:09:00+00:00,358.9646,7.3,12.01,47.84626,-54.09684
2022-05-20 01:19:01+00:00,363.838,7.3,12.01,47.84626,-54.09684
2022-05-20 01:29:01+00:00,367.7263,7.3,12.01,47.84626,-54.09684
2022-05-20 01:39:01+00:00,370.5046,7.32,12.01,47.84626,-54.09684
2022-05-20 01:49:01+00:00,374.5646,7.37,12.01,47.84626,-54.09684
2022-05-20 01:59:01+00:00,375.7079,7.39,12.01,47.84626,-54.09684
2022-05-20 02:09:01+00:00,375.968,7.4,12.01,47.84626,-54.09684
2022-05-20 02:19:00+00:00,377.6478,7.4,11.93,47.84626,-54.09684
2022-05-20 02:29:00+00:00,379.5929,7.4,11.93,47.84626,-54.09684
2022-05-20 02:39:00+00:00,380.7346,7.4,11.93,47.84626,-54.09684
2022-05-20 02:49:00+00:00,382.1262,7.4,11.93,47.84626,-54.09684
2022-05-20 02:59:00+00:00,382.0346,7.4,11.93,47.84626,-54.09684
2022-05-20 03:09:00+00:00,379.0713,7.4,11.93,47.84626,-54.09684
2022-05-20 03:19:00+00:00,375.353,7.47,11.93,47.84626,-54.09684
2022-05-20 03:29:00+00:00,371.6161,7.5,11.93,47.84626,-54.09684
2022-05-20 03:39:00+00:00,368.2512,7.74,11.93,47.84626,-54.09684
2022-05-20 03:49:00+00:00,364.8397,7.6,11.93,47.84626,-54.09684
2022-05-20 03:59:00+00:00,363.9913,7.55,11.93,47.84626,-54.09684
2022-05-20 04:09:00+00:00,360.8529,7.55,11.93,47.84626,-54.09684
2022-05-20 04:19:01+00:00,353.1412,7.62,11.93,47.84626,-54.09684
2022-05-20 04:29:01+00:00,348.2863,7.6,11.93,47.84626,-54.09684
2022-05-20 04:39:01+00:00,347.1696,7.58,11.93,47.84626,-54.09684
2022-05-20 04:49:01+00:00,338.7997,7.67,11.93,47.84626,-54.09684
2022-05-20 04:59:01+00:00,328.1497,7.7,11.93,47.84626,-54.09684
2022-05-20 05:09:01+00:00,323.0663,7.7,11.93,47.84626,-54.09684
2022-05-20 05:19:00+00:00,316.2463,7.8,11.93,47.84626,-54.09684
2022-05-20 05:29:00+00:00,301.6147,7.98,11.93,47.84626,-54.09684
2022-05-20 05:39:00+00:00,290.103,8.0,11.93,47.84626,-54.09684
2022-05-20 05:49:00+00:00,283.5297,8.01,11.93,47.84626,-54.09684
2022-05-20 05:59:00+00:00,275.6597,8.0,11.93,47.84626,-54.09684
2022-05-20 06:09:00+00:00,261.8864,8.0,11.93,47.84626,-54.09684
2022-05-20 06:19:00+00:00,251.2448,8.0,11.93,47.84626,-54.09684
2022-05-20 06:29:00+00:00,244.768,8.0,11.93,47.84626,-54.09684
2022-05-20 06:39:00+00:00,236.1165,8.0,11.93,47.84626,-54.09684
2022-05-20 06:49:00+00:00,229.1531,7.9,11.93,47.84626,-54.09684
2022-05-20 06:59:00+00:00,224.0148,7.9,11.93,47.84626,-54.09684
2022-05-20 07:09:00+00:00,218.4397,7.8,11.93,47.84626,-54.09684
2022-05-20 07:19:00+00:00,212.0565,7.69,11.93,47.84626,-54.09684
2022-05-20 07:29:00+00:00,206.2981,7.6,11.93,47.84626,-54.09684
2022-05-20 07:39:00+00:00,202.2564,7.59,11.93,47.84626,-54.09684
2022-05-20 07:49:00+00:00,199.3831,7.51,11.93,47.84626,-54.09684
2022-05-20 07:59:00+00:00,197.1081,7.54,11.93,47.84626,-54.09684
2022-05-20 08:09:00+00:00,195.0748,7.55,11.93,47.84626,-54.09684
2022-05-20 08:19:01+00:00,194.9448,7.53,11.93,47.84626,-54.09684
2022-05-20 08:29:01+00:00,197.1398,7.58,11.93,47.84626,-54.09684
2022-05-20 08:39:01+00:00,200.3015,7.58,11.93,47.84626,-54.09684
2022-05-20 08:49:01+00:00,202.0381,7.5,11.93,47.84626,-54.09684
2022-05-20 08:59:01+00:00,202.2715,7.5,11.93,47.84626,-54.09684
2022-05-20 09:09:01+00:00,202.1981,7.5,11.93,47.84626,-54.09684
2022-05-20 09:19:00+00:00,202.9198,7.5,11.93,47.84626,-54.09684
2022-05-20 09:29:00+00:00,205.9915,7.49,11.93,47.84626,-54.09684
2022-05-20 09:39:00+00:00,206.7615,7.49,11.93,47.84626,-54.09684
2022-05-20 09:49:00+00:00,206.9048,7.5,11.93,47.84626,-54.09684
2022-05-20 09:59:00+00:00,209.5764,7.5,11.93,47.84626,-54.09684
2022-05-20 10:09:00+00:00,212.1248,7.53,11.93,47.84626,-54.09684
2022-05-20 10:19:00+00:00,211.2231,7.6,12.09,47.84626,-54.09684
2022-05-20 10:29:00+00:00,210.8097,7.61,12.09,47.84626,-54.09684
2022-05-20 10:39:00+00:00,212.8215,7.64,12.09,47.84626,-54.09684
2022-05-20 10:49:00+00:00,217.1148,7.6,12.09,47.84626,-54.09684
2022-05-20 10:59:00+00:00,222.3098,7.6,12.09,47.84626,-54.09684
2022-05-20 11:09:00+00:00,221.0364,7.5,12.09,47.84626,-54.09684
2022-05-20 11:19:00+00:00,220.6448,7.5,12.17,47.84626,-54.09684
2022-05-20 11:29:00+00:00,225.5998,7.4,12.17,47.84626,-54.09684
2022-05-20 11:39:00+00:00,229.1464,7.4,12.17,47.84626,-54.09684
2022-05-20 11:49:00+00:00,232.0847,7.4,12.17,47.84626,-54.09684
2022-05-20 11:59:00+00:00,238.9597,7.35,12.17,47.84626,-54.09684
2022-05-20 12:09:00+00:00,251.2464,7.3,12.17,47.84626,-54.09684
2022-05-20 12:19:01+00:00,260.0747,7.3,12.25,47.84626,-54.09684
2022-05-20 12:29:01+00:00,264.2948,7.3,12.25,47.84626,-54.09684
2022-05-20 12:39:01+00:00,271.8464,7.36,12.25,47.84626,-54.09684
2022-05-20 12:49:01+00:00,283.653,7.39,12.25,47.84626,-54.09684
2022-05-20 12:59:01+00:00,289.3447,7.4,12.25,47.84626,-54.09684
2022-05-20 13:09:01+00:00,287.1214,7.4,12.25,47.84626,-54.09684
2022-05-20 13:19:00+00:00,290.8431,7.49,12.33,47.84626,-54.09684
2022-05-20 13:29:00+00:00,294.173,7.5,12.33,47.84626,-54.09684
2022-05-20 13:39:00+00:00,293.9548,7.5,12.33,47.84626,-54.09684
2022-05-20 13:49:00+00:00,300.8231,7.5,12.33,47.84626,-54.09684
2022-05-20 13:59:00+00:00,313.778,7.5,12.33,47.84626,-54.09684
2022-05-20 14:09:00+00:00,320.6864,7.3,12.33,47.84626,-54.09684
2022-05-20 14:19:00+00:00,324.5264,7.34,12.33,47.84626,-54.09684
2022-05-20 14:29:00+00:00,329.0347,7.36,12.33,47.84626,-54.09684
2022-05-20 14:39:00+00:00,330.338,7.39,12.33,47.84626,-54.09684
2022-05-20 14:49:00+00:00,328.2646,7.4,12.33,47.84626,-54.09684
2022-05-20 14:59:00+00:00,331.9095,7.4,12.33,47.84626,-54.09684
2022-05-20 15:09:00+00:00,333.3414,7.44,12.33,47.84626,-54.09684
2022-05-20 15:19:00+00:00,331.23800000000006,7.48,12.33,47.84626,-54.09684
2022-05-20 15:29:00+00:00,325.8864,7.48,12.33,47.84626,-54.09684
2022-05-20 15:39:00+00:00,329.7530000000001,7.44,12.33,47.84626,-54.09684
2022-05-20 15:49:00+00:00,333.7928,7.47,12.33,47.84626,-54.09684
2022-05-20 15:59:00+00:00,327.733,7.49,12.33,47.84626,-54.09684
2022-05-20 16:09:00+00:00,328.2797,7.5,12.33,47.84626,-54.09684
2022-05-20 16:19:01+00:00,336.788,7.5,12.33,47.84626,-54.09684
2022-05-20 16:29:01+00:00,335.3613,7.5,12.33,47.84626,-54.09684
2022-05-20 16:39:01+00:00,324.6429,7.52,12.33,47.84626,-54.09684
2022-05-20 16:49:01+00:00,322.1964,7.59,12.33,47.84626,-54.09684
2022-05-20 16:59:01+00:00,317.6413,7.5,12.33,47.84626,-54.09684
2022-05-20 17:09:01+00:00,306.843,7.4,12.33,47.84626,-54.09684
2022-05-20 17:19:00+00:00,296.5847,7.46,12.25,47.84626,-54.09684
2022-05-20 17:29:00+00:00,292.6813,7.48,12.25,47.84626,-54.09684
2022-05-20 17:39:00+00:00,285.1813,7.48,12.25,47.84626,-54.09684
2022-05-20 17:49:00+00:00,273.7964,7.5,12.25,47.84626,-54.09684
2022-05-20 17:59:00+00:00,266.2764,7.6,12.25,47.84626,-54.09684
2022-05-20 18:09:00+00:00,260.853,7.5,12.25,47.84626,-54.09684
2022-05-20 18:19:00+00:00,252.4214,7.5,12.17,47.84626,-54.09684
2022-05-20 18:29:00+00:00,242.6947,7.49,12.17,47.84626,-54.09684
2022-05-20 18:39:00+00:00,234.9981,7.4,12.17,47.84626,-54.09684
2022-05-20 18:49:00+00:00,225.9464,7.4,12.17,47.84626,-54.09684
2022-05-20 18:59:00+00:00,219.0615,7.3,12.17,47.84626,-54.09684
2022-05-20 19:09:00+00:00,214.3581,7.29,12.17,47.84626,-54.09684
2022-05-20 19:19:00+00:00,206.2598,7.24,12.17,47.84626,-54.09684
2022-05-20 19:29:00+00:00,198.6748,7.26,12.17,47.84626,-54.09684
2022-05-20 19:39:00+00:00,194.4615,7.29,12.17,47.84626,-54.09684
2022-05-20 19:49:00+00:00,192.3314,7.3,12.17,47.84626,-54.09684
2022-05-20 19:59:00+00:00,191.3315,7.3,12.17,47.84626,-54.09684
2022-05-20 20:09:00+00:00,191.5231,7.3,12.17,47.84626,-54.09684
2022-05-20 20:19:00+00:00,194.0998,7.37,12.17,47.84626,-54.09684
2022-05-20 20:29:00+00:00,197.7465,7.4,12.17,47.84626,-54.09684
2022-05-20 20:39:00+00:00,201.5798,7.47,12.17,47.84626,-54.09684
2022-05-20 20:49:00+00:00,201.7031,7.5,12.17,47.84626,-54.09684
2022-05-20 20:59:00+00:00,200.0298,7.59,12.17,47.84626,-54.09684
2022-05-20 21:09:00+00:00,201.1331,7.64,12.17,47.84626,-54.09684
2022-05-20 21:19:00+00:00,205.6381,7.7,12.17,47.84626,-54.09684
2022-05-20 21:29:00+00:00,208.588,7.8,12.17,47.84626,-54.09684
2022-05-20 21:39:00+00:00,209.1831,7.83,12.17,47.84626,-54.09684
2022-05-20 21:49:00+00:00,209.9431,7.9,12.17,47.84626,-54.09684
2022-05-20 21:59:00+00:00,210.1081,7.96,12.17,47.84626,-54.09684
2022-05-20 22:09:00+00:00,215.8948,8.0,12.17,47.84626,-54.09684
2022-05-20 22:19:00+00:00,222.3414,8.09,12.09,47.84626,-54.09684
2022-05-20 22:29:00+00:00,225.1464,8.1,12.09,47.84626,-54.09684
2022-05-20 22:39:00+00:00,222.7931,8.19,12.09,47.84626,-54.09684
2022-05-20 22:49:00+00:00,222.3648,8.2,12.09,47.84626,-54.09684
2022-05-20 22:59:00+00:00,226.9315,8.2,12.09,47.84626,-54.09684
2022-05-20 23:09:00+00:00,229.1964,8.2,12.09,47.84626,-54.09684
2022-05-20 23:19:00+00:00,227.5864,8.29,12.09,47.84626,-54.09684
2022-05-20 23:29:00+00:00,228.7348,8.3,12.09,47.84626,-54.09684
2022-05-20 23:39:00+00:00,235.1448,8.3,12.09,47.84626,-54.09684
2022-05-20 23:49:00+00:00,237.8281,8.3,12.09,47.84626,-54.09684
2022-05-20 23:59:00+00:00,242.6298,8.36,12.09,47.84626,-54.09684
